Location: Moena
(46.3667°N, 11.6500°E)
Time: 14:06:04
(UTC+00:00)

Cosmos 2219 Rocket - Pass Details

Date: 03 March 2021
Orbit: 826 x 848 km, 71.0° (Epoch: 19 April)

Event Time Altitude Azimuth Distance (km) Brightness Sun altitude
Rises 17:41:45 0° 150° (SSE) 3,353 5.0 -7.6°
Reaches altitude 10° 17:45:28 10° 125° (SE) 2,429 4.1 -8.2°
Maximum altitude 17:48:04 14° 97° (E) 2,195 3.7 -8.7°
Drops below altitude 10° 17:50:39 10° 68° (ENE) 2,442 4.0 -9.1°
Enters shadow 17:53:04 - 51° (NE) 3,002 4.6 -9.5°
